Wind_Speed
7 3 3 4 4 8 3 13 8 5 9 10 10 12 11 7 3 10 17 20 24 26 25 23 21 18 16 15 13 12 13 12 11 10 9 9 11 12 11 11 10 9 15 20 24 27 28 30 29 27 27 26 26 26 25 23 22 22 22 22 23 22 23 25 27 28 30 30 30 29 26 25 24 23 23 23 24 25 24 22 21 21 22 22 22 21 19
7 7 6 6 5 6 2 6 4 2 5 8 10 12 11 6 2 11 20 22 21 23 24 23 21 19 18 18 16 13 13 12 11 10 8 8 10 11 10 11 12 11 11 15 20 24 26 27 27 26 24 24 24 25 24 22 21 22 23 23 23 23 23 24 26 28 31 31 31 30 28 28 28 27 26 24 23 24 26 25 24 22 21 22 22 22 20
7 8 8 7 7 6 4 5 5 4 5 6 7 9 9 5 8 15 24 25 23 23 23 22 23 22 19 17 15 14 12 9 6 6 7 9 11 12 11 10 11 12 12 12 14 17 20 23 23 23 23 23 23 24 24 22 21 21 22 22 23 24 26 25 24 25 28 30 31 29 27 28 29 30 31 30 27 26 26 26 26 25 23 22 22 22 21
10 9 9 10 10 9 10 11 9 7 9 9 7 8 9 7 13 21 25 26 25 25 21 19 19 18 16 16 16 16 16 10 5 3 4 8 12 13 13 12 10 11 12 12 11 10 11 13 14 16 17 18 19 20 21 20 20 21 21 21 23 24 26 26 24 25 26 28 30 29 27 28 29 31 33 32 31 33 30 27 27 26 25 24 23 23 23
12 12 10 10 10 10 13 16 15 12 11 10 9 9 8 7 13 23 27 26 26 23 18 16 15 15 16 16 16 19 20 17 15 10 5 8 13 13 13 13 11 11 11 10 10 9 8 8 8 9 11 13 16 18 19 20 20 21 21 21 22 24 25 26 25 26 27 28 30 31 31 30 30 31 33 33 32 32 32 32 31 28 25 25 24 23 23
12 12 9 8 8 9 9 10 12 14 14 13 11 10 8 6 11 22 26 24 23 20 16 15 16 17 19 17 14 17 16 13 14 12 6 9 15 14 12 13 12 11 11 10 9 8 7 8 8 8 8 9 11 13 16 17 19 20 20 20 20 22 26 28 28 27 28 28 30 32 31 31 31 31 31 31 31 32 30 29 29 28 26 25 25 24 24
13 12 8 7 7 7 4 2 5 10 12 12 10 8 10 9 12 19 24 22 19 17 15 17 18 19 21 18 12 10 11 7 4 5 4 8 15 14 12 13 12 11 11 10 9 9 7 7 7 6 6 6 6 7 8 10 12 14 16 17 18 20 23 26 28 29 29 30 31 32 31 31 31 32 32 31 31 31 31 30 29 29 29 28 27 26 26
12 12 10 7 4 5 5 5 9 12 9 8 10 10 9 11 12 16 20 20 19 18 18 20 22 19 20 20 13 8 10 11 7 2 3 9 14 14 13 12 11 11 11 10 10 9 9 8 7 6 6 6 5 5 5 5 6 8 9 12 15 17 19 22 24 26 28 30 30 30 30 30 31 32 33 33 32 31 31 31 31 32 32 30 29 29 29
11 14 15 10 5 7 9 8 11 13 8 6 9 9 8 11 14 16 19 19 20 21 19 18 18 13 11 14 11 5 4 8 10 6 5 10 13 13 12 13 11 11 11 10 11 11 10 10 9 8 7 6 6 6 5 5 5 5 6 7 9 11 14 16 18 21 24 27 29 29 30 29 30 31 32 32 32 31 30 30 31 31 31 31 31 31 30
11 13 15 12 8 9 12 12 12 12 8 6 8 10 11 12 14 17 20 20 20 19 16 14 14 10 7 9 12 8 6 6 9 9 6 11 13 12 12 14 12 12 13 12 12 12 11 11 11 10 10 9 8 8 8 7 7 6 6 6 6 7 8 10 13 16 19 22 26 28 29 30 31 31 30 31 31 31 30 30 31 31 31 32 32 32 32
12 11 12 12 9 5 7 12 11 10 10 10 10 11 13 15 15 15 18 19 17 15 13 13 15 13 9 11 14 15 11 7 7 9 11 13 11 10 13 14 12 12 15 14 14 15 14 13 13 13 13 12 11 11 11 11 10 9 9 9 8 8 8 8 9 11 14 16 20 24 27 29 31 31 31 31 31 31 32 33 34 33 33 34 34 34 34
12 11 11 12 8 3 9 14 12 11 12 11 10 9 13 18 17 15 16 16 16 16 14 13 15 14 12 15 17 16 12 8 6 10 15 16 13 12 15 14 12 14 16 16 16 18 17 16 17 17 15 15 15 15 15 14 14 13 12 12 11 11 12 11 11 11 12 12 14 17 20 24 27 29 31 31 32 33 34 35 35 34 33 34 34 34 35
13 12 13 11 4 7 12 12 11 11 9 8 8 7 9 16 19 18 17 13 14 19 19 14 13 13 14 19 21 17 12 10 7 6 10 14 14 15 17 16 15 16 18 16 17 20 19 18 19 19 18 18 18 18 18 18 18 17 16 15 15 14 15 15 14 14 14 13 13 12 14 17 20 23 27 30 32 33 35 36 36 36 35 35 34 34 35
13 13 15 10 6 9 12 12 12 11 6 5 10 12 12 15 17 16 16 15 16 20 21 17 15 15 14 16 19 17 13 10 7 7 13 19 21 19 18 18 20 21 19 17 19 21 20 20 20 20 19 20 20 20 21 21 21 20 20 20 19 18 17 17 17 17 17 16 15 14 13 13 13 14 18 22 25 29 32 34 37 38 38 36 35 35 35
13 13 14 10 6 11 14 12 11 10 7 8 14 17 18 20 19 17 15 19 22 22 22 22 20 16 15 19 23 23 18 11 9 15 22 26 25 22 20 21 23 23 21 21 21 22 21 22 22 21 21 21 21 21 22 23 23 23 23 23 22 22 21 21 20 20 20 19 18 18 17 16 14 13 12 12 14 18 23 27 31 35 37 37 36 35 35
11 12 9 5 5 11 14 12 11 12 13 12 12 14 17 19 21 21 17 19 23 22 20 24 25 21 20 23 25 25 21 18 19 24 28 27 25 24 25 26 26 24 23 23 24 23 23 24 24 24 24 23 23 23 23 23 24 24 25 25 25 24 24 24 23 23 23 22 21 20 19 19 18 16 13 11 10 10 13 18 23 28 32 36 36 35 35
6 7 4 4 7 11 12 13 15 14 12 11 12 14 15 14 16 18 14 14 18 16 14 18 24 24 24 23 23 22 20 20 22 25 26 26 26 26 26 27 26 24 23 23 23 24 24 25 25 25 25 25 25 25 25 25 25 25 26 26 26 26 26 26 26 25 25 25 25 23 21 20 20 18 16 14 11 9 9 13 17 22 27 32 34 35 35
6 7 7 7 10 12 9 12 15 14 12 11 12 12 12 12 14 16 14 15 17 15 13 15 17 21 22 23 22 21 19 19 20 22 23 24 26 27 28 28 27 26 24 23 24 24 24 24 25 25 25 25 26 26 26 26 25 26 27 27 27 27 27 27 27 27 27 28 28 27 25 23 22 21 19 17 15 13 11 11 13 16 21 26 30 34 36
9 8 9 10 10 11 9 8 9 12 13 14 14 13 14 18 20 19 18 18 16 14 14 15 16 19 21 21 22 21 20 20 20 21 21 23 24 26 28 29 29 29 28 28 26 25 24 25 25 25 25 26 26 26 26 26 26 27 28 28 28 29 28 28 27 27 29 30 30 30 29 27 25 25 23 21 19 17 15 13 12 13 16 20 25 29 34
10 8 9 11 12 12 11 8 7 9 11 12 15 17 19 21 23 21 20 20 19 18 18 18 18 20 21 21 22 22 21 20 20 19 20 20 20 22 23 25 27 29 31 31 30 28 26 25 25 25 26 26 27 27 28 28 28 28 28 29 30 30 31 30 27 26 28 31 32 31 31 29 28 27 26 25 23 22 20 18 16 15 15 18 21 25 29
12 11 12 14 14 13 12 11 10 10 10 12 14 16 19 22 23 22 20 19 19 19 20 21 21 21 22 23 24 24 23 21 20 20 19 18 18 18 19 20 22 24 27 29 28 27 25 24 23 23 23 24 26 27 28 29 29 29 29 30 31 32 33 33 30 27 28 31 32 32 31 31 30 29 28 27 26 25 25 24 22 19 17 18 19 22 25
12 12 13 15 15 12 12 13 12 10 12 13 12 12 14 15 16 20 22 21 21 22 22 23 23 22 22 25 25 24 24 22 21 20 19 18 18 18 19 19 20 21 22 23 24 24 23 21 20 20 20 20 21 22 24 26 28 29 30 30 31 32 33 34 33 32 31 30 30 30 31 32 31 30 29 28 28 28 27 27 26 24 22 20 21 21 22
14 13 14 15 14 11 11 15 16 15 16 14 11 12 12 10 10 15 17 17 17 18 19 21 22 22 23 24 24 24 24 23 22 20 19 19 18 18 19 19 20 21 21 21 22 23 22 22 21 20 20 19 19 19 20 22 23 25 27 28 29 31 32 34 35 35 33 31 29 29 30 31 32 31 29 28 29 29 29 29 29 28 26 25 24 23 23
16 15 15 16 17 14 13 15 16 18 21 19 16 16 15 11 9 9 10 11 11 12 13 15 15 16 16 15 16 19 22 21 20 19 19 19 18 18 19 19 20 21 21 21 22 23 23 24 24 23 22 22 21 20 21 21 22 22 24 26 27 29 30 32 34 35 34 32 31 30 30 31 32 33 31 29 28 28 29 30 30 30 29 28 28 27 26
20 19 17 17 19 18 17 16 17 18 19 17 16 14 12 11 10 8 7 10 10 9 11 9 7 10 13 12 12 15 18 19 19 18 18 18 18 18 18 18 18 19 19 21 22 23 24 24 25 25 25 25 24 23 22 23 23 23 24 24 26 27 29 30 32 33 33 33 32 31 31 31 32 33 32 30 29 29 29 30 31 31 31 30 30 30 29
24 24 23 22 23 22 21 18 18 19 20 19 17 13 11 12 13 12 9 7 6 9 12 10 8 13 18 18 16 16 17 17 18 18 17 18 18 19 18 17 17 17 18 19 21 22 22 23 24 24 25 26 26 25 25 24 24 25 25 25 26 26 28 30 31 31 31 32 32 32 32 31 31 32 32 32 32 31 30 30 31 32 32 32 32 32 31
24 24 24 23 23 24 23 19 17 18 19 19 18 15 12 14 18 17 13 11 10 12 13 12 12 17 20 18 17 17 17 17 18 19 18 18 18 18 18 18 17 17 18 19 20 21 22 23 23 24 25 26 26 26 27 26 26 26 26 27 27 27 28 30 31 31 30 30 32 32 32 31 31 32 33 34 34 34 33 31 31 33 34 35 35 35 34
21 21 20 20 20 21 22 19 18 18 18 18 18 16 14 16 19 19 16 16 17 16 14 15 17 19 19 18 18 17 17 17 18 19 19 18 18 18 19 19 18 17 18 19 20 20 21 22 22 23 24 25 25 26 27 27 28 28 28 28 28 28 29 30 31 32 32 31 31 32 32 31 31 33 34 34 35 36 36 34 33 33 34 36 37 37 37
16 15 15 16 16 16 16 16 17 19 20 21 22 20 17 17 19 17 15 17 18 17 17 19 20 19 19 19 18 17 16 17 17 18 18 18 18 19 19 19 18 18 18 18 19 19 20 21 22 23 23 23 24 24 25 27 28 28 29 29 29 29 30 31 32 32 33 33 33 32 32 32 32 33 34 35 36 37 38 37 36 35 35 36 38 39 39
13 13 13 15 15 15 15 16 17 19 20 21 22 21 19 18 18 16 14 15 15 14 15 16 17 17 17 17 16 16 16 16 16 17 17 17 18 18 18 18 18 18 18 18 17 18 18 19 20 22 22 22 22 23 24 25 26 27 28 29 30 30 31 32 33 34 34 34 34 33 33 33 34 34 34 34 36 37 38 39 38 38 37 37 38 39 41
11 12 13 14 15 15 16 16 18 19 20 20 21 20 20 19 18 16 14 14 13 12 13 14 16 16 16 15 15 16 15 15 15 15 16 16 17 17 17 17 17 18 18 18 18 18 18 18 19 21 22 22 22 23 23 24 25 26 28 29 30 31 32 33 34 34 34 34 34 34 34 34 35 35 34 34 35 37 39 39 39 39 39 39 39 40 42
10 12 13 13 14 15 16 17 18 19 19 21 22 21 21 21 20 19 17 16 14 14 14 16 17 16 14 14 15 14 13 13 14 14 15 16 17 17 17 17 18 19 19 19 20 19 19 19 19 20 21 21 22 23 23 24 25 26 27 28 29 30 31 32 32 33 33 33 33 34 34 34 35 36 35 34 34 36 38 39 39 39 39 40 40 41 43
8 11 12 13 14 15 16 17 18 18 19 22 23 23 22 23 22 21 20 18 17 18 18 19 18 15 13 14 15 14 13 14 14 15 16 18 18 17 17 17 18 18 19 19 20 20 20 20 20 20 20 20 21 22 23 24 25 26 27 28 29 29 30 30 31 32 32 33 33 33 33 34 35 35 35 34 34 35 37 39 40 39 38 38 39 41 43
13 13 13 13 14 16 17 18 19 20 21 23 24 24 24 25 24 23 22 21 19 18 19 20 18 16 15 15 15 15 15 16 16 17 17 17 17 16 16 15 16 16 17 18 19 20 20 20 20 20 20 20 21 22 23 24 25 26 27 28 29 30 31 31 31 31 32 32 32 31 32 33 34 34 34 33 33 34 36 37 38 39 38 37 38 40 43
18 18 16 14 15 17 17 18 19 20 21 22 23 24 26 28 26 23 23 21 18 17 18 19 18 16 16 16 15 16 17 17 17 17 16 15 15 14 14 14 16 16 17 18 20 21 22 21 21 22 22 22 22 22 23 24 25 26 27 28 29 30 31 32 32 32 32 32 32 32 31 32 32 32 32 32 32 34 35 36 37 38 38 37 37 39 41
21 21 20 19 19 19 18 18 18 19 21 22 23 24 26 27 27 25 23 20 18 18 19 20 18 16 16 16 16 17 17 17 17 16 15 14 14 14 15 16 17 18 19 20 21 22 23 23 23 24 24 24 24 25 25 25 26 27 27 28 28 29 30 31 33 33 32 32 33 33 33 32 31 31 30 31 32 33 34 35 36 37 37 37 37 38 39
23 23 22 22 21 20 20 20 20 21 22 22 22 22 22 24 25 25 23 21 20 21 21 20 19 18 17 17 17 17 18 17 16 15 14 14 15 15 16 18 19 20 21 21 22 23 24 25 25 25 25 25 27 27 27 27 28 28 28 28 28 29 29 30 31 32 33 33 33 34 34 33 33 32 31 31 32 32 34 34 35 36 37 37 37 37 38
23 23 23 23 22 21 22 21 21 22 24 25 24 23 22 21 24 26 25 23 21 21 21 20 20 19 18 18 18 18 18 18 16 15 15 15 16 17 18 19 20 21 21 21 22 23 24 26 26 26 26 27 28 29 29 29 28 28 28 28 29 29 30 31 31 32 32 33 33 33 34 34 34 34 34 33 33 32 32 33 34 35 36 37 37 37 37
22 22 23 23 23 22 22 21 20 21 22 24 25 25 23 21 22 24 25 23 22 22 22 21 21 20 19 19 18 18 18 18 17 16 16 16 17 17 18 20 22 22 22 22 23 24 25 26 27 28 28 28 29 29 29 29 28 28 29 29 30 30 30 31 32 32 32 33 33 34 34 34 34 34 35 35 35 34 33 33 33 34 36 37 37 37 37
23 23 24 25 24 23 22 21 20 20 20 20 22 23 23 23 23 24 24 23 23 23 24 23 21 20 19 19 19 19 19 19 17 17 16 16 17 17 18 20 22 23 22 22 24 25 26 27 28 28 29 29 29 29 30 30 30 30 30 30 30 31 31 31 32 33 33 33 33 34 34 34 34 34 34 35 35 35 35 34 34 34 35 36 37 37 37
21 20 21 22 24 24 23 21 21 21 21 21 22 23 23 24 25 27 27 26 25 26 25 24 22 20 19 19 19 19 19 19 17 17 17 17 17 18 18 20 21 22 22 22 24 25 27 28 28 28 28 29 29 30 31 31 31 31 31 31 31 31 31 32 32 32 32 32 32 32 33 33 33 33 34 34 34 35 35 35 35 35 35 36 36 36 37
19 19 19 20 22 24 24 24 23 22 22 22 23 23 24 24 26 28 28 28 29 29 27 25 22 20 20 19 19 20 20 19 18 18 18 18 18 19 19 20 21 22 21 22 24 26 27 29 29 28 28 29 29 30 31 32 32 32 32 32 31 31 31 32 32 33 33 33 33 32 32 32 33 33 33 33 33 33 34 35 36 36 36 36 36 36 36
19 20 20 21 21 22 23 25 24 23 22 23 23 23 22 23 25 27 27 27 29 30 29 27 24 22 20 20 20 21 21 20 19 19 19 18 19 20 19 19 21 23 22 22 23 26 27 29 30 29 29 29 30 30 31 32 32 32 32 31 31 32 32 32 33 34 34 34 35 34 34 34 34 34 34 34 33 32 32 34 35 36 37 37 37 36 36
20 21 21 21 20 21 21 22 23 22 22 22 23 21 18 19 22 25 26 27 29 28 27 26 25 23 21 20 21 22 20 19 18 19 19 18 19 21 21 20 20 22 23 24 25 27 28 29 30 30 30 30 30 30 31 31 31 31 31 31 31 32 33 33 34 34 35 35 35 35 36 36 37 37 37 37 35 34 33 33 34 35 36 37 37 37 36
19 20 21 20 20 20 21 21 21 20 20 21 22 21 19 18 20 22 25 29 30 26 23 22 22 21 20 20 20 19 18 17 17 17 17 17 18 20 22 22 21 22 23 25 27 28 29 29 29 30 31 30 30 29 29 29 29 29 30 30 31 32 33 34 34 35 35 35 36 36 37 38 39 39 40 39 38 36 35 33 33 34 35 36 36 37 36
18 19 19 19 18 19 19 19 19 18 17 17 20 22 20 18 18 20 24 28 28 25 21 19 19 18 17 17 17 16 15 15 15 16 17 18 17 18 20 21 21 21 22 25 27 28 29 29 29 30 31 31 30 29 28 28 28 28 29 29 30 31 32 33 33 34 34 35 36 36 37 37 38 39 40 39 39 37 35 34 33 33 33 34 35 36 35
16 16 16 16 16 16 17 16 17 17 16 15 18 20 20 17 16 18 20 21 22 21 20 18 16 16 16 16 16 15 14 14 15 16 18 18 18 19 22 23 22 21 22 25 27 28 27 26 27 28 30 30 29 28 28 27 27 27 27 27 28 29 29 30 30 31 31 32 34 35 36 37 38 38 38 37 36 35 34 33 33 32 33 33 34 34 34
15 14 13 12 12 13 12 12 13 14 14 14 16 19 19 17 16 16 16 16 17 18 18 16 15 16 16 15 14 14 14 13 14 16 17 18 19 20 23 25 25 23 23 25 28 29 27 25 24 25 27 28 27 27 26 26 26 26 25 25 25 26 26 26 26 27 28 30 31 33 34 34 35 35 34 32 31 30 30 31 32 32 32 33 33 33 33
14 13 13 11 9 9 9 9 10 12 12 12 13 15 17 17 16 13 12 14 16 17 15 14 14 14 14 13 13 14 14 14 14 16 17 17 18 19 22 25 25 24 24 25 26 27 27 26 25 25 25 26 26 26 25 25 25 24 24 23 23 23 24 24 25 25 26 27 28 29 30 30 30 30 29 27 26 26 27 29 30 30 31 31 32 32 32
14 13 11 9 6 6 7 8 9 9 10 10 10 11 14 16 15 11 10 14 17 16 13 11 11 11 11 11 12 13 13 14 14 15 16 17 17 19 20 22 24 25 26 24 23 22 23 24 24 24 24 24 25 25 25 25 24 23 22 21 21 21 21 22 22 23 23 24 24 25 26 27 26 26 25 25 24 24 25 26 27 27 28 29 30 31 32
17 14 10 8 6 5 4 4 5 6 6 6 6 7 10 13 13 11 11 15 17 16 12 11 11 10 10 10 11 12 13 13 13 13 14 16 17 19 20 20 21 23 23 21 20 21 21 22 22 22 23 23 24 25 25 25 24 23 22 21 20 20 20 19 19 19 20 21 21 22 22 23 22 22 21 22 23 24 24 25 26 26 27 27 29 30 31
21 17 13 10 10 9 6 3 1 2 2 3 5 7 9 11 12 10 10 11 13 13 11 10 9 9 9 9 9 10 12 12 12 13 14 15 17 19 21 21 21 21 20 20 21 22 22 21 21 22 22 22 23 24 24 24 23 23 22 21 20 20 20 19 18 17 17 17 17 17 17 17 17 17 17 18 20 22 24 25 26 27 28 29 29 30 31
Wind_Direction
224 267 292 233 299 332 216 182 185 217 228 243 253 248 253 285 20 136 160 161 152 151 154 154 154 150 146 143 136 127 124 119 108 102 95 91 106 115 116 122 134 165 188 198 204 207 209 210 212 217 222 222 219 217 214 212 215 220 225 232 237 238 238 240 241 238 235 232 227 221 217 216 222 232 241 245 244 245 246 245 241 237 239 244 244 241 238
236 236 257 242 255 332 42 146 154 203 226 237 243 249 255 262 117 145 156 152 147 149 152 151 152 154 154 148 140 138 138 128 117 113 100 90 108 119 120 121 122 133 160 187 203 210 214 217 219 220 223 227 228 228 224 217 216 221 224 228 235 238 238 240 245 246 241 238 233 226 220 218 218 221 226 232 240 245 245 245 246 244 240 241 246 248 243
271 235 233 238 245 282 283 229 226 230 241 248 235 238 244 205 137 149 153 146 144 151 152 154 159 161 156 149 144 135 129 126 118 120 119 110 118 129 129 124 125 127 132 153 181 202 214 221 225 225 225 229 231 230 227 218 213 219 226 232 239 242 240 238 241 245 244 243 242 235 226 224 227 228 224 219 219 227 238 245 248 249 246 242 243 249 252
267 241 223 229 240 255 258 251 245 232 232 239 231 225 227 191 155 157 154 148 152 157 153 153 161 162 153 151 153 140 132 136 130 107 133 140 136 138 137 133 132 131 127 130 144 164 188 204 216 220 220 224 227 228 229 224 218 221 226 230 235 241 245 243 239 240 243 245 248 246 239 233 234 238 242 238 225 216 216 226 238 245 248 248 246 245 248
258 246 227 228 235 241 248 247 239 230 224 227 228 219 213 201 182 173 163 158 159 158 154 152 153 154 152 156 170 168 157 153 151 141 139 157 154 150 145 142 138 136 134 130 130 136 141 152 170 188 199 211 219 226 232 232 231 233 234 234 235 238 243 245 243 242 242 242 244 246 246 244 239 238 244 251 248 236 222 215 219 226 235 245 250 248 245
262 255 223 214 231 234 244 247 234 226 220 219 224 212 181 168 181 175 167 164 163 159 158 158 157 163 165 162 173 178 167 161 167 163 143 152 161 159 155 155 150 146 146 143 139 139 137 137 142 152 171 191 207 219 227 231 236 241 243 245 246 242 240 240 240 240 240 240 241 244 246 248 246 241 241 247 255 257 249 237 229 226 227 234 240 243 243
265 265 221 203 232 231 228 232 192 196 205 211 206 180 157 156 170 174 170 164 162 161 159 160 169 183 184 173 163 162 151 136 165 178 142 155 168 168 167 168 166 161 161 159 158 155 155 155 150 149 159 168 182 201 213 221 229 238 242 246 250 249 246 242 241 240 239 238 240 243 245 247 248 248 248 249 251 255 255 252 244 237 234 235 236 238 240
249 251 224 211 236 216 194 180 165 155 150 166 160 138 139 155 161 172 175 166 158 159 162 169 180 191 191 184 178 164 147 134 128 170 193 177 177 179 183 184 181 180 179 175 176 175 174 176 176 174 177 175 179 189 195 204 214 223 231 236 241 247 250 251 250 248 245 243 241 242 244 246 247 249 251 252 253 254 254 252 247 240 238 240 240 241 243
231 239 232 222 231 226 210 195 180 167 151 152 160 149 147 159 159 163 169 166 159 160 164 172 181 192 202 193 185 191 193 160 151 169 211 198 188 188 197 201 198 199 201 199 196 195 193 193 194 195 199 202 205 211 213 219 224 225 230 232 236 241 245 250 253 253 253 251 247 244 244 245 246 249 251 252 253 254 257 258 255 250 247 246 246 246 246
222 238 242 228 226 239 222 204 201 198 193 191 187 178 167 168 171 168 166 162 158 162 168 172 180 193 199 169 151 161 220 207 157 156 198 210 202 201 212 217 214 213 217 218 216 215 213 212 211 210 213 218 225 234 240 240 242 244 248 254 256 255 255 253 252 253 254 254 252 249 247 246 247 249 251 251 252 254 256 257 254 251 249 250 251 250 250
223 229 242 230 227 244 198 180 180 183 186 188 190 192 189 182 178 174 172 168 166 172 179 177 179 184 179 164 155 161 186 203 178 186 213 223 221 221 226 229 227 227 230 230 230 231 230 227 227 227 229 231 233 238 244 247 251 251 251 257 262 267 273 273 268 263 259 257 254 252 250 249 249 251 253 253 253 256 258 255 251 248 247 249 250 251 252
236 227 234 233 227 171 154 159 158 163 180 192 195 207 208 195 182 176 182 187 187 186 184 178 174 172 182 196 188 174 176 192 201 216 224 226 232 242 246 247 238 233 238 239 236 240 241 238 238 241 243 243 240 241 243 246 251 253 253 255 258 262 267 271 275 277 274 270 263 258 256 254 252 252 254 254 253 254 256 256 253 248 247 249 250 251 254
237 231 234 235 189 146 163 163 162 172 185 200 201 199 197 190 181 174 178 191 197 193 195 199 191 184 197 209 201 189 196 209 208 228 236 233 240 251 259 265 258 248 249 246 241 246 249 246 246 249 251 248 246 247 248 248 250 252 254 255 255 256 261 265 269 272 276 278 277 272 269 263 258 256 255 255 255 253 254 257 257 252 248 249 251 252 254
235 237 238 227 150 153 171 160 161 181 196 201 192 179 163 166 170 169 175 187 189 184 186 191 187 183 198 213 207 200 210 219 214 236 254 257 261 262 261 265 266 263 263 259 254 256 257 254 253 253 253 252 251 252 252 252 252 253 253 254 254 254 256 259 264 267 270 274 276 277 279 278 274 269 262 260 261 258 256 259 261 257 252 251 253 253 254
232 234 235 228 184 173 177 168 171 191 205 209 201 187 172 168 166 164 179 197 197 190 186 187 185 181 194 213 219 218 221 234 244 249 253 257 262 266 266 266 267 267 268 268 265 265 265 264 263 261 258 257 256 255 255 256 257 257 256 255 254 254 255 256 258 262 265 269 271 272 276 279 280 281 278 275 273 265 257 257 258 257 254 253 253 253 254
232 232 224 227 189 166 168 178 192 197 200 206 205 190 183 184 179 171 179 200 202 197 196 197 197 197 202 215 228 233 235 243 249 250 253 257 261 265 267 268 267 267 267 266 265 266 266 267 267 267 266 265 263 262 260 260 260 260 260 259 257 256 256 256 256 258 260 263 266 268 271 274 276 278 283 288 291 281 263 252 248 248 248 249 251 253 254
242 244 203 161 155 155 170 196 205 207 207 209 208 196 189 196 190 176 184 217 216 206 203 201 201 206 215 224 234 238 239 242 247 250 254 259 263 264 265 265 264 264 263 263 262 263 264 265 266 267 267 267 266 266 265 264 264 263 262 262 261 259 257 257 257 257 257 258 260 262 264 268 271 274 277 281 285 288 277 261 250 245 244 246 249 251 252
236 235 216 192 163 154 175 203 208 213 212 209 216 210 196 203 200 182 188 224 232 221 213 211 211 217 224 231 236 239 240 242 247 251 253 257 261 264 265 264 263 262 261 260 259 260 262 264 265 266 267 267 268 268 268 268 268 267 267 266 265 263 260 258 257 257 257 257 258 259 259 260 264 268 270 271 273 276 278 276 268 259 252 250 250 251 252
231 226 225 218 188 173 182 191 203 216 212 206 213 209 196 204 210 202 204 223 237 237 228 226 230 232 234 238 242 244 246 248 249 251 254 256 259 262 264 265 265 264 263 260 259 259 260 263 265 266 268 269 270 271 271 271 271 270 270 271 270 268 265 261 258 258 258 258 257 257 257 257 258 261 263 264 266 268 269 269 271 269 263 256 253 251 251
221 218 210 195 181 185 190 181 190 216 217 216 220 214 207 212 218 221 226 234 246 254 251 242 237 238 242 247 250 252 254 255 253 252 252 255 259 263 266 267 267 265 264 262 261 261 261 263 266 267 269 270 271 272 272 272 273 273 273 273 273 273 272 268 264 260 259 259 259 258 258 257 255 256 258 259 260 262 264 264 263 265 267 263 258 254 252
218 225 225 209 199 201 201 195 203 226 242 250 248 232 220 223 228 230 230 233 239 247 250 248 244 244 245 248 251 255 257 256 252 251 251 254 259 262 265 268 268 268 267 266 265 264 264 264 264 266 268 269 271 272 272 272 272 272 272 273 274 275 275 274 272 268 262 261 261 261 260 259 256 254 254 255 254 255 258 261 261 260 262 265 264 260 257
220 220 220 218 217 219 219 211 203 210 228 244 257 246 223 219 229 231 230 232 237 241 246 249 250 250 250 250 252 254 256 254 250 250 253 255 256 258 260 263 267 269 270 270 269 268 267 265 264 264 266 269 272 273 273 273 272 272 272 272 273 274 276 277 277 274 270 267 266 265 263 262 260 256 253 252 251 250 250 254 257 257 256 258 262 263 261
234 224 213 212 212 211 219 213 200 200 211 216 232 248 237 215 213 222 224 225 229 237 244 247 248 248 249 252 255 254 253 252 251 252 255 256 255 257 258 259 261 264 266 269 270 270 270 271 270 269 270 272 274 275 276 276 275 275 275 274 273 273 274 276 277 277 276 275 272 269 267 265 264 260 255 251 249 248 247 247 250 253 252 251 255 260 261
239 235 228 227 223 219 224 221 211 214 219 215 216 233 239 225 204 214 238 242 231 227 233 237 246 256 254 250 253 256 256 256 256 256 258 258 258 260 260 259 259 260 262 265 267 268 271 273 274 275 275 274 274 274 276 277 277 277 277 277 276 275 275 277 278 280 281 280 277 274 271 268 266 264 260 254 249 247 246 245 245 248 249 248 249 253 256
241 243 241 243 240 234 233 235 233 231 228 224 222 223 226 224 205 194 235 260 251 237 231 225 240 265 260 247 247 257 262 265 264 262 262 262 262 262 260 259 259 259 260 263 264 265 267 269 272 275 276 276 275 275 274 276 277 278 279 280 282 283 282 280 280 281 282 282 280 278 275 271 269 268 266 260 253 248 245 244 244 244 246 247 247 248 250
242 244 246 250 249 242 236 235 239 242 244 248 248 235 224 231 228 213 216 234 235 240 243 228 210 232 243 248 255 263 270 272 271 269 268 266 264 264 263 262 261 259 260 261 262 264 266 266 269 272 274 275 277 277 277 278 279 279 280 281 282 283 284 284 284 284 284 283 282 280 278 276 273 271 269 265 260 254 248 245 243 243 244 245 246 248 248
244 245 246 246 244 242 239 234 234 243 251 255 253 244 235 242 248 245 237 225 219 233 243 234 227 238 248 256 263 267 271 274 273 272 271 269 268 269 269 267 266 266 265 264 264 265 265 266 267 268 270 272 275 277 279 280 280 280 280 280 281 281 282 284 286 287 287 285 283 282 281 278 273 270 269 267 264 261 256 251 246 244 243 243 244 247 249
245 246 246 245 243 243 243 238 233 240 248 248 246 246 242 241 247 249 243 229 225 232 240 241 246 256 261 262 263 265 268 270 271 272 272 272 272 272 271 271 272 271 268 266 266 266 265 265 266 266 267 269 271 274 277 279 280 281 281 282 282 282 282 283 284 286 287 287 286 284 282 279 274 270 268 267 266 265 262 258 253 249 245 244 243 244 246
240 243 246 249 251 251 249 244 237 238 243 245 249 252 247 241 243 248 248 240 234 236 246 252 254 259 261 261 262 262 260 262 267 270 272 272 271 271 273 274 275 273 271 269 268 267 267 267 267 267 268 268 269 271 273 276 278 280 281 282 282 282 282 282 282 283 283 285 286 286 283 280 277 273 269 266 266 266 265 263 259 255 251 249 247 244 243
240 244 247 251 254 253 251 249 245 245 246 248 251 253 251 249 250 252 253 251 243 239 247 255 256 257 259 260 260 260 258 259 263 266 269 271 271 271 272 273 274 274 273 271 270 270 270 270 270 270 270 271 271 271 272 273 275 277 278 280 281 281 281 281 282 283 284 285 286 287 285 281 279 276 272 268 265 265 266 266 263 260 257 254 252 250 247
247 250 250 251 255 256 254 249 246 246 245 242 242 244 246 249 251 250 249 249 246 239 241 249 256 260 263 263 260 260 260 260 261 264 267 270 271 272 274 275 275 275 275 274 273 272 271 272 273 274 274 274 274 274 274 275 276 277 277 278 279 280 281 283 284 285 286 286 286 285 284 282 279 277 275 272 267 264 264 266 266 265 262 259 258 257 253
249 256 257 255 256 256 254 252 249 246 242 238 237 239 240 241 244 245 245 244 243 241 244 253 261 266 266 263 261 260 259 259 261 264 267 270 271 274 277 278 278 279 278 277 276 275 273 273 273 274 276 277 277 278 278 278 278 278 278 279 280 281 283 284 285 286 286 286 285 283 282 281 279 277 276 274 270 265 263 264 266 268 266 264 263 262 259
265 263 262 261 261 257 252 251 251 247 243 240 237 236 237 238 239 239 240 240 242 245 249 255 260 265 267 265 263 261 260 262 265 267 270 273 276 278 280 281 281 282 282 281 281 281 279 278 277 277 277 279 280 281 280 278 278 279 279 280 281 282 283 284 285 285 286 285 285 284 282 281 279 278 277 276 272 268 264 263 265 268 269 267 267 266 262
290 283 271 261 259 259 256 255 253 247 242 241 238 237 239 239 236 235 237 238 238 243 249 252 256 263 267 265 261 260 261 264 267 270 273 276 278 280 282 284 286 287 288 289 289 288 287 288 289 287 284 284 285 285 282 280 279 278 278 280 281 282 282 283 283 284 285 285 285 284 283 281 279 278 278 276 274 271 267 265 265 267 269 268 268 268 266
292 291 284 273 267 265 261 258 256 252 248 245 240 237 240 240 236 232 235 236 234 236 244 250 256 263 266 264 261 261 262 263 266 269 270 273 277 281 286 290 292 293 295 296 296 296 297 299 297 295 293 293 291 288 286 284 282 280 280 280 280 281 281 282 281 281 283 284 283 282 281 280 279 279 278 276 274 272 270 268 266 267 268 269 268 268 268
292 290 287 283 279 276 270 263 259 258 257 253 246 241 242 245 241 233 228 229 231 234 241 251 260 266 269 269 267 266 264 264 266 268 270 274 280 287 293 298 299 299 299 300 301 302 302 301 299 298 299 298 295 292 290 288 286 284 283 282 282 282 283 283 282 280 279 280 280 280 278 277 277 277 276 275 273 272 271 270 268 268 269 269 268 267 268
291 289 286 281 276 274 272 267 262 258 256 254 252 249 247 247 247 240 228 224 229 235 240 249 258 263 268 270 270 268 267 266 268 271 276 280 286 292 297 301 302 301 302 305 307 305 302 300 299 299 299 297 294 293 292 291 290 289 287 286 285 285 284 283 282 280 278 277 278 279 278 275 273 272 272 272 272 271 271 270 270 270 269 269 269 268 268
288 287 285 281 275 270 268 267 266 261 253 247 248 251 248 246 247 241 228 220 224 232 238 246 254 258 263 266 267 268 269 269 269 272 278 283 288 294 299 301 300 302 306 309 308 304 301 300 299 298 296 294 293 293 293 294 293 292 289 287 286 284 282 282 282 281 280 278 277 278 279 277 274 271 269 269 270 270 271 271 270 270 270 270 269 269 268
287 285 283 281 277 271 268 266 265 263 255 245 242 245 246 244 243 237 225 218 223 230 235 243 251 255 256 258 261 265 269 270 271 274 278 283 288 293 299 299 299 301 307 310 307 304 303 301 299 297 295 294 294 294 294 293 292 289 286 283 282 281 281 281 281 281 281 280 278 277 277 277 276 273 271 269 269 268 269 269 270 270 270 270 269 269 268
284 283 281 280 276 272 269 266 261 257 255 250 245 243 241 239 236 228 218 215 224 231 235 240 247 252 254 256 259 263 267 270 272 274 276 281 286 292 297 298 299 302 307 309 306 305 304 301 299 298 298 297 296 295 293 291 289 287 285 283 281 280 279 279 280 280 281 281 280 278 277 276 276 275 273 271 269 268 267 267 267 268 269 269 269 269 268
286 281 278 278 276 273 270 266 259 255 254 253 249 245 242 239 235 230 225 222 224 229 232 236 240 245 249 253 258 262 266 269 272 275 278 283 287 291 295 297 298 301 305 306 304 303 302 300 299 300 301 299 297 295 293 291 289 287 285 283 282 280 278 277 278 279 280 280 280 279 278 277 276 275 274 272 270 269 267 266 265 265 267 268 269 269 268
288 281 278 278 277 274 269 265 262 259 256 253 248 245 242 239 237 237 234 227 221 222 228 233 236 241 246 251 256 261 264 267 271 276 282 287 290 291 294 296 297 300 303 305 304 303 301 300 300 302 302 300 297 295 293 291 289 287 286 284 282 280 279 277 276 277 277 278 279 279 279 278 277 276 275 273 271 269 268 266 265 264 264 266 267 268 268
288 284 282 281 280 276 271 266 264 262 259 254 250 248 246 241 238 239 235 225 217 219 224 229 234 240 245 250 255 259 262 266 273 280 286 290 291 291 294 298 300 302 305 308 306 304 303 303 303 304 303 300 298 297 294 292 289 288 286 284 282 280 279 278 277 276 276 276 276 277 278 278 278 277 277 275 273 270 267 265 264 263 262 263 265 266 267
288 286 284 282 280 277 273 267 264 262 260 253 247 245 245 241 238 236 231 222 216 218 224 230 235 240 241 244 250 257 262 269 279 285 290 294 294 294 297 302 304 305 309 311 309 306 306 306 306 305 302 300 299 297 295 293 291 289 287 284 281 279 278 277 277 276 275 275 275 275 276 277 278 278 277 277 275 271 267 264 263 262 262 262 263 264 265
290 289 286 283 280 277 273 267 261 259 259 253 245 242 242 241 238 235 228 220 216 219 228 234 234 233 234 238 246 256 266 274 282 286 290 293 295 296 300 305 307 310 312 312 309 307 307 307 307 305 303 301 300 298 295 293 291 289 287 284 281 280 278 277 276 275 274 273 273 273 274 276 278 279 279 277 275 272 268 264 262 261 260 260 261 262 263
298 294 288 284 281 278 273 266 259 254 253 248 242 240 239 237 234 231 224 219 217 222 229 231 226 224 229 239 246 254 264 274 281 285 288 291 293 294 296 298 301 307 309 307 305 306 308 308 307 305 304 303 302 301 298 295 292 290 287 285 283 281 279 277 275 274 273 272 272 273 274 276 278 280 280 278 274 271 267 263 260 258 258 258 259 261 262
313 308 300 291 284 280 275 268 259 254 251 245 239 236 233 229 224 221 217 216 218 222 222 219 218 223 232 242 250 257 264 274 282 286 289 292 294 295 295 297 301 309 312 310 307 307 308 308 307 306 305 305 305 303 301 299 296 293 290 287 284 281 279 278 276 274 273 272 273 273 274 276 278 280 280 278 274 269 266 262 258 256 255 255 257 259 261
324 319 312 301 290 284 279 268 257 254 252 243 233 228 224 218 212 211 213 216 219 219 215 213 219 227 235 243 252 259 265 272 278 281 285 290 294 297 299 302 307 314 317 314 311 310 310 309 310 310 308 308 307 306 305 303 301 298 295 290 285 281 279 278 277 276 276 275 275 275 275 277 279 280 279 276 272 268 264 260 257 255 254 254 255 257 259
333 329 323 314 301 292 282 267 252 249 249 242 233 229 225 219 213 211 215 216 213 209 208 214 223 230 234 240 247 253 259 263 267 271 277 283 289 293 296 300 305 311 313 312 311 311 311 312 314 316 316 315 314 313 312 309 306 303 300 295 289 284 281 280 280 280 280 280 279 278 278 279 279 278 276 274 271 267 264 262 259 256 255 256 256 256 257
348 344 338 330 323 315 298 276 252 235 229 228 228 230 229 222 212 205 206 205 200 195 199 211 221 226 231 236 242 249 256 260 262 266 273 279 282 285 289 296 304 309 312 313 313 313 312 313 317 321 324 324 322 321 319 317 313 310 305 301 296 291 288 286 286 286 286 285 284 281 278 275 273 271 269 268 269 269 268 266 264 261 260 260 260 259 258
8 6 2 2 10 11 338 285 251 228 216 209 205 213 219 215 207 200 202 203 199 195 200 210 216 219 228 235 240 248 255 261 264 268 273 278 283 286 291 298 305 308 310 312 314 315 315 316 320 324 327 328 328 328 327 323 320 317 315 311 307 302 297 294 293 293 294 293 290 284 278 272 269 267 265 263 264 266 268 268 267 266 265 265 265 265 264
18 21 24 29 35 40 48 66 115 195 197 172 160 171 186 190 187 185 191 195 191 188 193 202 207 215 229 239 246 253 259 264 268 271 275 281 287 293 298 304 307 307 308 312 315 317 319 321 323 326 328 330 331 332 331 328 326 324 321 319 316 312 307 303 301 300 300 299 296 291 283 277 273 271 270 267 265 266 267 267 267 267 266 266 266 266 265
Height
3126 3127 3126 3126 3126 3124 3123 3124 3127 3129 3129 3130 3131 3132 3133 3134 3134 3139 3143 3144 3145 3148 3151 3154 3157 3159 3160 3161 3163 3164 3165 3165 3166 3166 3165 3163 3162 3162 3163 3164 3164 3165 3166 3167 3168 3170 3171 3173 3174 3176 3177 3179 3181 3181 3182 3184 3185 3187 3188 3189 3192 3196 3198 3199 3201 3202 3202 3203 3205 3208 3210 3211 3213 3217 3218 3220 3221 3221 3221 3222 3223 3224 3224 3224 3225 3226 3228
3126 3127 3127 3127 3127 3126 3125 3127 3129 3130 3131 3131 3132 3132 3133 3135 3135 3138 3143 3146 3148 3150 3151 3153 3156 3158 3159 3160 3162 3163 3164 3165 3165 3165 3165 3163 3162 3162 3163 3164 3164 3165 3166 3166 3167 3168 3170 3172 3173 3174 3177 3179 3182 3184 3185 3184 3184 3186 3188 3188 3190 3193 3195 3196 3198 3199 3201 3203 3205 3208 3210 3209 3210 3212 3214 3216 3219 3221 3222 3221 3221 3222 3224 3224 3224 3225 3226
3126 3127 3128 3128 3128 3128 3128 3128 3130 3131 3132 3133 3133 3133 3134 3135 3136 3139 3142 3144 3148 3150 3151 3152 3155 3156 3157 3159 3161 3162 3164 3165 3165 3164 3163 3162 3162 3163 3163 3164 3165 3165 3166 3167 3167 3168 3169 3170 3172 3173 3175 3177 3180 3183 3184 3183 3183 3185 3186 3187 3189 3191 3192 3194 3196 3198 3199 3202 3204 3204 3204 3205 3208 3211 3211 3210 3211 3216 3220 3222 3222 3222 3222 3223 3224 3225 3225
3127 3126 3127 3128 3129 3129 3129 3129 3130 3131 3133 3133 3133 3134 3135 3136 3137 3139 3142 3143 3145 3148 3150 3151 3153 3155 3157 3159 3160 3161 3162 3164 3165 3164 3162 3162 3162 3163 3163 3164 3165 3165 3166 3167 3168 3168 3169 3169 3171 3173 3174 3175 3177 3180 3182 3182 3182 3183 3184 3185 3187 3188 3189 3191 3195 3196 3197 3200 3201 3200 3198 3200 3204 3210 3213 3212 3209 3208 3210 3214 3218 3221 3222 3222 3223 3224 3224
3126 3125 3126 3127 3128 3129 3128 3128 3129 3131 3132 3133 3133 3134 3135 3136 3136 3137 3140 3142 3144 3147 3148 3150 3153 3155 3157 3158 3158 3158 3159 3161 3163 3163 3162 3161 3162 3163 3163 3164 3165 3165 3166 3167 3167 3168 3169 3169 3170 3172 3173 3174 3176 3178 3180 3180 3181 3182 3183 3184 3185 3186 3186 3189 3191 3193 3194 3195 3196 3197 3198 3201 3203 3206 3210 3213 3213 3212 3209 3208 3209 3214 3218 3220 3221 3223 3223
3125 3124 3125 3127 3128 3127 3126 3126 3128 3129 3130 3132 3133 3133 3135 3136 3136 3137 3139 3141 3143 3146 3148 3150 3152 3153 3154 3154 3155 3156 3159 3160 3161 3161 3161 3160 3161 3162 3163 3164 3165 3166 3166 3167 3167 3168 3169 3169 3170 3171 3172 3173 3174 3176 3177 3178 3179 3180 3182 3183 3184 3184 3185 3186 3187 3188 3190 3191 3192 3193 3196 3201 3202 3203 3206 3209 3212 3214 3215 3214 3213 3214 3215 3216 3218 3219 3220
3125 3124 3124 3126 3126 3125 3126 3126 3126 3126 3129 3131 3132 3132 3133 3136 3137 3137 3139 3141 3143 3145 3148 3151 3151 3151 3152 3153 3154 3156 3158 3160 3161 3161 3160 3159 3160 3161 3162 3163 3164 3165 3166 3167 3167 3168 3168 3169 3169 3170 3171 3172 3173 3174 3175 3176 3177 3178 3179 3181 3182 3183 3183 3183 3184 3185 3186 3188 3189 3190 3193 3196 3198 3200 3203 3205 3207 3209 3211 3213 3215 3214 3214 3214 3214 3215 3216
3125 3124 3124 3125 3124 3124 3125 3125 3124 3126 3128 3129 3130 3132 3133 3136 3138 3138 3139 3141 3143 3145 3147 3149 3149 3149 3151 3153 3154 3155 3156 3159 3161 3162 3159 3158 3159 3160 3161 3162 3163 3164 3165 3166 3167 3167 3168 3168 3169 3170 3170 3171 3172 3173 3174 3174 3175 3176 3177 3178 3179 3180 3181 3181 3181 3182 3183 3185 3186 3188 3190 3193 3195 3197 3199 3201 3203 3204 3206 3207 3208 3209 3211 3211 3212 3212 3213
3123 3123 3122 3123 3123 3124 3124 3125 3125 3126 3128 3129 3131 3133 3134 3136 3138 3139 3140 3141 3143 3145 3146 3147 3148 3149 3151 3152 3154 3155 3155 3156 3159 3160 3158 3157 3158 3159 3160 3161 3163 3164 3165 3165 3166 3167 3167 3168 3168 3169 3169 3170 3171 3172 3172 3173 3174 3175 3176 3176 3177 3178 3178 3179 3179 3179 3180 3182 3183 3185 3188 3189 3191 3193 3195 3197 3198 3200 3202 3203 3205 3207 3208 3209 3209 3210 3210
3122 3123 3121 3120 3122 3122 3122 3123 3124 3126 3129 3130 3131 3133 3134 3136 3137 3138 3140 3141 3143 3144 3145 3146 3147 3148 3149 3150 3153 3155 3155 3154 3155 3156 3155 3155 3157 3158 3159 3160 3162 3163 3163 3164 3165 3165 3166 3167 3167 3168 3168 3169 3170 3170 3171 3172 3173 3173 3174 3175 3175 3176 3176 3177 3177 3177 3178 3179 3181 3183 3185 3186 3188 3189 3191 3193 3195 3196 3197 3197 3199 3201 3203 3205 3206 3207 3208
3121 3122 3120 3119 3120 3121 3122 3122 3123 3126 3128 3128 3130 3132 3133 3134 3136 3138 3139 3141 3143 3145 3146 3146 3146 3148 3149 3150 3151 3154 3155 3153 3152 3153 3152 3152 3154 3156 3157 3158 3160 3161 3161 3162 3163 3163 3164 3165 3165 3166 3167 3167 3168 3169 3169 3170 3171 3172 3172 3173 3173 3174 3174 3175 3175 3175 3176 3177 3179 3180 3181 3182 3184 3187 3188 3190 3191 3193 3193 3193 3193 3195 3197 3199 3201 3202 3204
3120 3120 3120 3119 3119 3120 3121 3122 3123 3125 3125 3126 3129 3131 3130 3131 3135 3137 3139 3141 3143 3145 3147 3145 3145 3147 3149 3148 3149 3151 3152 3152 3151 3150 3150 3151 3152 3153 3154 3156 3158 3159 3159 3160 3161 3161 3162 3163 3163 3164 3165 3166 3166 3167 3167 3168 3169 3170 3171 3171 3172 3172 3173 3173 3173 3174 3174 3175 3177 3178 3178 3179 3181 3183 3184 3186 3188 3189 3190 3190 3190 3192 3194 3195 3196 3198 3200
3118 3119 3118 3118 3118 3120 3121 3121 3122 3123 3125 3126 3129 3129 3128 3129 3133 3135 3138 3142 3142 3143 3144 3143 3143 3145 3146 3145 3146 3148 3148 3149 3149 3148 3147 3148 3149 3150 3151 3153 3154 3155 3156 3158 3158 3158 3159 3160 3161 3161 3163 3164 3164 3164 3165 3166 3166 3167 3168 3169 3169 3170 3171 3171 3171 3172 3172 3173 3174 3175 3176 3177 3178 3179 3180 3181 3183 3185 3187 3188 3189 3191 3192 3192 3193 3194 3195
3117 3117 3117 3117 3118 3119 3120 3121 3121 3122 3125 3126 3126 3126 3127 3130 3132 3134 3137 3139 3137 3138 3140 3141 3141 3144 3145 3144 3145 3145 3145 3146 3146 3145 3144 3145 3146 3148 3150 3150 3150 3151 3153 3155 3155 3155 3156 3157 3158 3159 3160 3161 3161 3162 3162 3163 3163 3165 3166 3166 3167 3167 3168 3168 3169 3169 3169 3170 3171 3172 3174 3174 3175 3176 3177 3178 3179 3180 3183 3185 3187 3188 3190 3190 3190 3191 3192
3115 3115 3115 3115 3116 3118 3120 3121 3121 3121 3123 3123 3123 3124 3126 3128 3130 3133 3134 3134 3133 3135 3137 3138 3140 3142 3142 3141 3142 3142 3143 3144 3144 3143 3142 3142 3144 3146 3147 3147 3148 3149 3150 3151 3152 3152 3153 3154 3155 3156 3157 3157 3158 3159 3159 3160 3160 3161 3162 3163 3164 3164 3165 3165 3166 3166 3166 3167 3168 3169 3170 3171 3172 3173 3174 3175 3176 3176 3178 3180 3182 3185 3187 3188 3188 3188 3188
3113 3113 3113 3114 3114 3117 3119 3119 3119 3119 3120 3121 3123 3124 3125 3126 3128 3130 3130 3130 3132 3134 3135 3137 3138 3138 3139 3139 3140 3140 3141 3142 3142 3141 3140 3141 3143 3144 3144 3144 3145 3147 3148 3148 3149 3149 3150 3150 3151 3152 3153 3154 3155 3155 3156 3157 3157 3158 3158 3159 3160 3161 3162 3162 3162 3163 3163 3163 3164 3165 3167 3167 3168 3170 3171 3172 3173 3173 3174 3175 3177 3179 3181 3182 3183 3184 3184
3111 3111 3112 3113 3115 3117 3117 3116 3117 3118 3119 3121 3122 3123 3124 3125 3126 3128 3128 3128 3130 3132 3133 3135 3136 3137 3137 3138 3138 3138 3139 3140 3139 3139 3140 3140 3141 3141 3141 3142 3143 3144 3146 3146 3146 3146 3147 3147 3148 3148 3149 3150 3151 3151 3152 3153 3154 3154 3154 3155 3156 3157 3158 3158 3159 3159 3160 3160 3160 3161 3163 3163 3164 3166 3168 3169 3170 3171 3171 3172 3173 3174 3175 3176 3178 3178 3179
3111 3111 3111 3113 3115 3116 3115 3114 3115 3117 3118 3120 3121 3123 3124 3124 3124 3126 3127 3126 3127 3130 3132 3132 3134 3135 3135 3135 3135 3136 3137 3138 3138 3138 3139 3139 3139 3139 3139 3139 3140 3141 3143 3143 3144 3144 3144 3144 3145 3145 3146 3146 3147 3148 3148 3149 3150 3150 3150 3151 3152 3153 3154 3154 3155 3155 3156 3156 3157 3158 3159 3160 3161 3162 3164 3165 3167 3168 3168 3169 3170 3170 3171 3172 3172 3173 3173
3111 3111 3111 3112 3114 3115 3114 3114 3115 3116 3116 3118 3119 3121 3122 3121 3120 3123 3125 3124 3125 3128 3129 3130 3131 3132 3132 3133 3133 3134 3135 3136 3136 3137 3137 3137 3137 3136 3136 3136 3136 3137 3138 3139 3140 3141 3141 3142 3142 3142 3143 3143 3143 3144 3144 3145 3145 3146 3146 3147 3147 3148 3149 3150 3151 3152 3152 3152 3152 3154 3155 3156 3157 3158 3160 3161 3163 3164 3165 3166 3166 3166 3167 3167 3168 3168 3168
3110 3110 3110 3111 3112 3113 3113 3114 3115 3115 3115 3115 3117 3118 3118 3118 3118 3120 3122 3123 3123 3124 3125 3127 3128 3129 3130 3130 3130 3131 3132 3133 3134 3134 3134 3134 3134 3134 3134 3133 3133 3133 3133 3134 3136 3137 3138 3139 3139 3139 3139 3140 3140 3140 3140 3141 3141 3142 3142 3143 3143 3143 3144 3145 3147 3148 3148 3147 3148 3150 3151 3152 3153 3154 3156 3157 3159 3160 3161 3161 3162 3163 3163 3163 3163 3163 3163
3109 3109 3109 3109 3110 3111 3111 3113 3114 3115 3113 3112 3114 3115 3115 3115 3116 3117 3119 3121 3120 3120 3122 3123 3124 3126 3126 3127 3127 3128 3129 3130 3131 3131 3132 3132 3132 3132 3132 3131 3130 3130 3130 3130 3131 3133 3134 3135 3136 3136 3136 3136 3136 3136 3136 3137 3137 3138 3138 3139 3139 3139 3139 3140 3141 3143 3143 3143 3144 3146 3147 3148 3149 3150 3152 3153 3154 3156 3156 3157 3158 3159 3160 3159 3159 3159 3159
3107 3106 3106 3106 3108 3110 3110 3111 3113 3114 3113 3111 3111 3112 3113 3113 3113 3114 3116 3117 3117 3118 3118 3119 3120 3122 3122 3122 3123 3124 3125 3126 3127 3128 3129 3130 3130 3130 3129 3129 3129 3128 3128 3128 3128 3129 3130 3131 3132 3133 3133 3133 3133 3133 3133 3133 3133 3133 3134 3134 3135 3135 3135 3135 3136 3137 3137 3138 3140 3141 3142 3143 3144 3145 3147 3148 3150 3151 3152 3152 3153 3154 3155 3156 3155 3155 3155
3104 3103 3103 3104 3106 3107 3107 3108 3110 3111 3111 3110 3110 3110 3111 3112 3111 3111 3112 3114 3115 3115 3116 3116 3117 3118 3118 3119 3119 3120 3121 3122 3123 3125 3126 3126 3127 3127 3127 3127 3127 3126 3126 3126 3126 3126 3126 3127 3128 3129 3129 3129 3130 3130 3130 3129 3129 3130 3130 3130 3131 3131 3131 3130 3130 3130 3132 3134 3135 3136 3137 3137 3138 3140 3142 3144 3145 3146 3147 3148 3148 3149 3150 3151 3151 3151 3151
3101 3101 3102 3103 3103 3104 3104 3105 3107 3108 3108 3108 3109 3108 3108 3109 3109 3109 3110 3111 3112 3113 3113 3114 3114 3114 3115 3115 3116 3116 3117 3118 3119 3120 3122 3122 3123 3124 3124 3124 3124 3124 3124 3124 3123 3123 3123 3123 3123 3124 3125 3125 3126 3126 3126 3126 3126 3126 3126 3126 3126 3126 3126 3126 3126 3126 3127 3129 3130 3131 3132 3132 3133 3134 3136 3138 3140 3141 3142 3143 3144 3144 3144 3145 3145 3146 3146
3098 3099 3100 3101 3102 3102 3102 3103 3104 3104 3105 3106 3107 3106 3106 3106 3107 3109 3110 3110 3110 3110 3111 3112 3113 3112 3112 3112 3112 3112 3113 3114 3115 3116 3117 3118 3119 3119 3120 3120 3121 3121 3121 3121 3121 3121 3121 3121 3120 3120 3120 3121 3121 3122 3122 3122 3123 3123 3123 3123 3123 3123 3123 3123 3123 3123 3123 3124 3124 3125 3126 3127 3127 3128 3130 3133 3134 3135 3137 3138 3139 3139 3139 3140 3140 3140 3141
3096 3096 3097 3098 3099 3100 3099 3100 3100 3101 3102 3102 3103 3104 3104 3103 3104 3106 3108 3108 3108 3109 3110 3110 3110 3110 3109 3109 3109 3109 3110 3110 3111 3112 3113 3114 3115 3115 3116 3117 3117 3117 3118 3118 3118 3118 3118 3118 3118 3118 3117 3117 3117 3117 3118 3118 3119 3119 3119 3119 3119 3119 3119 3118 3118 3119 3119 3119 3119 3120 3121 3122 3123 3124 3125 3127 3128 3129 3131 3132 3133 3134 3135 3135 3135 3135 3135
3093 3093 3093 3094 3095 3096 3096 3097 3098 3098 3099 3099 3099 3100 3101 3100 3100 3102 3104 3104 3105 3106 3106 3106 3106 3105 3105 3106 3107 3107 3107 3107 3108 3109 3109 3110 3111 3112 3112 3113 3114 3114 3114 3114 3115 3115 3115 3115 3115 3115 3114 3114 3114 3113 3113 3114 3114 3114 3114 3114 3115 3115 3115 3114 3114 3114 3115 3115 3115 3115 3116 3118 3118 3119 3119 3120 3121 3123 3125 3126 3128 3128 3129 3130 3130 3129 3129
3090 3090 3090 3090 3091 3092 3093 3094 3095 3096 3097 3097 3096 3097 3098 3097 3097 3098 3100 3101 3103 3103 3102 3102 3102 3102 3102 3102 3103 3104 3105 3105 3105 3105 3106 3107 3108 3108 3108 3109 3110 3111 3111 3111 3111 3111 3111 3111 3112 3111 3111 3111 3111 3111 3110 3110 3110 3110 3110 3110 3110 3110 3110 3110 3110 3110 3110 3110 3111 3111 3112 3112 3113 3113 3114 3115 3116 3117 3118 3120 3121 3122 3123 3124 3124 3124 3125
3086 3087 3087 3087 3088 3089 3090 3092 3093 3093 3094 3094 3093 3094 3095 3094 3094 3095 3097 3098 3099 3099 3098 3098 3098 3098 3099 3099 3100 3101 3102 3102 3102 3103 3103 3104 3104 3105 3105 3106 3106 3107 3107 3107 3108 3108 3108 3108 3108 3108 3108 3108 3108 3108 3107 3107 3106 3106 3105 3106 3106 3106 3105 3105 3105 3105 3105 3106 3106 3106 3107 3107 3108 3108 3109 3110 3110 3111 3112 3113 3115 3116 3117 3118 3118 3119 3119
3083 3084 3085 3086 3086 3087 3087 3088 3089 3090 3090 3091 3090 3091 3091 3091 3091 3092 3094 3094 3095 3096 3095 3095 3096 3096 3096 3097 3097 3098 3099 3099 3100 3100 3100 3100 3101 3101 3102 3102 3103 3103 3103 3104 3104 3104 3104 3104 3103 3103 3103 3104 3104 3104 3104 3103 3103 3102 3101 3101 3101 3101 3101 3100 3100 3101 3101 3101 3101 3102 3102 3102 3102 3103 3103 3104 3105 3105 3106 3107 3108 3110 3111 3111 3112 3112 3112
3081 3082 3082 3083 3084 3084 3084 3085 3085 3086 3087 3087 3088 3088 3089 3089 3089 3090 3091 3091 3092 3092 3093 3093 3093 3093 3094 3094 3095 3095 3096 3097 3097 3097 3097 3097 3098 3098 3099 3099 3099 3099 3099 3100 3100 3101 3101 3100 3100 3100 3099 3100 3100 3100 3100 3099 3099 3098 3098 3097 3097 3097 3096 3096 3096 3096 3096 3097 3097 3096 3096 3096 3096 3097 3098 3099 3099 3100 3100 3101 3102 3103 3104 3105 3106 3106 3105
3078 3079 3080 3080 3081 3081 3081 3081 3082 3083 3083 3084 3084 3085 3086 3087 3087 3088 3088 3089 3089 3090 3090 3091 3091 3091 3092 3092 3092 3093 3093 3094 3094 3095 3095 3095 3095 3095 3096 3096 3096 3096 3096 3096 3096 3097 3097 3097 3097 3096 3096 3096 3096 3095 3095 3095 3095 3094 3094 3093 3093 3093 3093 3092 3092 3092 3092 3092 3092 3092 3091 3091 3091 3091 3092 3093 3094 3094 3095 3095 3096 3097 3098 3099 3100 3100 3099
3077 3077 3077 3078 3078 3078 3078 3078 3079 3079 3080 3080 3081 3082 3083 3084 3085 3085 3086 3087 3087 3088 3088 3088 3088 3089 3089 3090 3090 3091 3091 3091 3092 3092 3092 3092 3092 3093 3093 3093 3093 3093 3093 3093 3092 3092 3092 3093 3093 3093 3093 3092 3092 3091 3091 3091 3090 3090 3090 3089 3089 3089 3089 3088 3088 3088 3087 3087 3087 3087 3087 3086 3086 3086 3087 3088 3088 3088 3089 3090 3091 3092 3092 3093 3094 3093 3093
3077 3077 3076 3075 3074 3074 3074 3074 3075 3076 3076 3077 3077 3078 3079 3080 3081 3082 3083 3084 3084 3085 3085 3086 3086 3086 3087 3087 3088 3089 3089 3089 3089 3089 3089 3089 3090 3090 3090 3090 3090 3090 3089 3089 3089 3088 3088 3088 3088 3089 3089 3088 3088 3087 3087 3086 3086 3086 3086 3085 3085 3084 3084 3084 3084 3083 3083 3082 3082 3082 3082 3081 3081 3081 3082 3082 3082 3083 3083 3084 3085 3086 3087 3087 3088 3087 3087
3076 3076 3075 3074 3072 3071 3071 3072 3072 3073 3073 3073 3073 3074 3075 3076 3077 3079 3080 3080 3081 3082 3083 3083 3083 3084 3084 3085 3086 3086 3086 3086 3086 3087 3087 3087 3087 3087 3087 3087 3087 3086 3086 3086 3085 3084 3084 3084 3084 3084 3084 3084 3083 3083 3082 3082 3081 3081 3081 3081 3081 3080 3079 3079 3079 3079 3079 3078 3077 3077 3077 3077 3076 3076 3077 3077 3077 3077 3078 3079 3079 3080 3081 3081 3082 3082 3081
3072 3072 3072 3072 3071 3070 3070 3071 3071 3071 3071 3070 3070 3071 3072 3073 3074 3075 3076 3077 3078 3079 3080 3080 3080 3081 3081 3082 3083 3083 3083 3083 3083 3084 3084 3084 3084 3084 3084 3084 3083 3083 3083 3083 3082 3081 3080 3080 3079 3079 3079 3079 3078 3078 3078 3077 3077 3077 3077 3077 3076 3076 3075 3075 3074 3074 3074 3073 3073 3072 3072 3072 3072 3072 3072 3072 3072 3072 3073 3073 3074 3074 3075 3075 3075 3076 3076
3069 3068 3068 3068 3068 3067 3067 3068 3068 3068 3068 3068 3068 3068 3069 3070 3071 3072 3072 3074 3075 3077 3077 3077 3078 3078 3079 3079 3080 3080 3080 3080 3081 3081 3081 3081 3081 3081 3081 3081 3080 3080 3079 3079 3079 3078 3077 3076 3075 3075 3075 3074 3073 3073 3073 3073 3072 3072 3072 3072 3072 3071 3071 3070 3069 3069 3068 3068 3068 3067 3067 3067 3067 3067 3067 3067 3067 3067 3067 3068 3068 3068 3069 3069 3069 3070 3071
3065 3064 3063 3063 3063 3063 3063 3063 3064 3064 3064 3064 3065 3065 3066 3067 3068 3068 3069 3071 3072 3074 3074 3074 3075 3076 3077 3077 3077 3078 3078 3078 3078 3078 3079 3079 3079 3079 3078 3078 3077 3077 3077 3076 3076 3075 3074 3073 3072 3072 3071 3070 3070 3069 3068 3068 3068 3068 3068 3067 3067 3066 3065 3065 3064 3063 3063 3063 3063 3062 3062 3062 3062 3062 3062 3062 3062 3062 3062 3063 3063 3063 3063 3063 3064 3064 3065
3061 3061 3060 3059 3059 3059 3059 3059 3060 3060 3060 3060 3060 3061 3062 3063 3064 3065 3066 3067 3069 3070 3071 3072 3072 3073 3074 3075 3075 3075 3076 3076 3076 3076 3076 3076 3076 3076 3076 3075 3074 3074 3074 3073 3072 3071 3071 3070 3069 3068 3067 3067 3066 3065 3064 3064 3063 3063 3062 3062 3061 3061 3060 3060 3059 3058 3058 3058 3057 3057 3057 3057 3057 3057 3056 3056 3057 3057 3057 3057 3057 3057 3058 3058 3058 3058 3059
3057 3056 3056 3055 3055 3055 3055 3055 3056 3056 3056 3056 3057 3058 3059 3060 3061 3062 3062 3064 3065 3067 3068 3068 3070 3071 3071 3072 3073 3073 3073 3073 3074 3074 3074 3074 3074 3074 3073 3072 3071 3071 3071 3070 3069 3068 3067 3066 3065 3064 3063 3062 3062 3061 3060 3059 3059 3058 3057 3057 3057 3056 3056 3055 3054 3053 3053 3052 3052 3052 3051 3051 3051 3051 3051 3051 3051 3051 3051 3052 3052 3052 3052 3052 3052 3052 3053
3053 3052 3052 3051 3051 3051 3051 3051 3051 3052 3052 3053 3054 3054 3055 3056 3058 3059 3059 3060 3061 3063 3064 3065 3067 3068 3068 3069 3070 3070 3070 3071 3071 3071 3071 3071 3071 3071 3071 3070 3069 3068 3068 3067 3066 3065 3063 3062 3061 3060 3060 3058 3057 3056 3055 3054 3054 3053 3052 3052 3052 3051 3051 3050 3049 3048 3048 3047 3047 3046 3046 3046 3046 3046 3045 3045 3045 3045 3046 3046 3046 3046 3046 3047 3047 3047 3047
3048 3048 3048 3047 3047 3047 3046 3047 3047 3047 3048 3049 3049 3050 3051 3052 3053 3055 3057 3057 3057 3058 3060 3062 3063 3065 3066 3066 3067 3067 3068 3068 3069 3069 3068 3068 3068 3068 3068 3067 3066 3065 3065 3064 3062 3061 3060 3058 3057 3057 3056 3054 3053 3052 3051 3050 3049 3048 3048 3047 3047 3046 3045 3045 3044 3043 3043 3042 3042 3041 3041 3041 3040 3040 3040 3040 3040 3040 3040 3040 3040 3040 3041 3041 3041 3041 3042
3045 3044 3043 3043 3043 3042 3042 3042 3043 3043 3044 3044 3044 3045 3047 3048 3049 3051 3053 3054 3053 3054 3056 3058 3060 3061 3063 3064 3064 3064 3065 3066 3066 3066 3065 3065 3064 3064 3064 3064 3063 3062 3061 3061 3059 3058 3056 3055 3053 3053 3051 3050 3049 3048 3046 3045 3044 3043 3043 3042 3041 3041 3040 3039 3039 3038 3038 3037 3037 3036 3036 3035 3035 3035 3034 3034 3034 3034 3034 3034 3034 3034 3035 3035 3035 3036 3036
3041 3040 3039 3039 3038 3038 3038 3038 3038 3039 3039 3040 3041 3042 3043 3044 3045 3047 3049 3051 3050 3051 3053 3055 3057 3059 3060 3061 3061 3061 3062 3063 3063 3063 3062 3062 3061 3060 3060 3060 3060 3058 3058 3057 3056 3054 3053 3052 3050 3048 3047 3046 3045 3043 3042 3040 3039 3039 3038 3037 3036 3035 3034 3034 3033 3033 3032 3032 3031 3031 3030 3030 3029 3029 3029 3028 3028 3028 3028 3028 3028 3029 3029 3029 3030 3030 3031
3037 3036 3035 3034 3034 3034 3033 3034 3034 3034 3035 3036 3037 3039 3040 3041 3042 3043 3046 3047 3048 3049 3051 3052 3054 3056 3057 3058 3059 3059 3060 3060 3060 3060 3060 3060 3059 3057 3056 3056 3056 3055 3055 3053 3052 3050 3049 3048 3046 3044 3043 3041 3040 3039 3038 3036 3035 3034 3033 3032 3031 3030 3029 3028 3028 3027 3027 3026 3026 3025 3025 3024 3024 3023 3022 3022 3022 3022 3022 3022 3023 3023 3024 3024 3024 3024 3025
3034 3032 3031 3031 3030 3030 3030 3030 3031 3031 3031 3032 3033 3035 3037 3038 3038 3040 3042 3044 3045 3047 3049 3050 3052 3053 3055 3056 3057 3057 3058 3058 3058 3057 3057 3057 3056 3056 3054 3054 3054 3054 3053 3051 3049 3048 3046 3045 3043 3041 3039 3037 3036 3035 3033 3032 3031 3029 3028 3027 3026 3025 3024 3023 3023 3022 3022 3021 3020 3020 3019 3019 3018 3017 3016 3016 3016 3016 3016 3016 3017 3017 3018 3019 3019 3019 3019
3031 3030 3028 3027 3027 3027 3027 3027 3028 3028 3029 3028 3029 3031 3034 3035 3036 3037 3039 3041 3043 3045 3046 3048 3050 3051 3053 3054 3054 3055 3056 3055 3055 3054 3054 3053 3053 3053 3052 3051 3051 3051 3050 3048 3046 3045 3044 3042 3040 3038 3035 3034 3033 3031 3029 3028 3026 3025 3024 3022 3021 3020 3019 3018 3017 3017 3016 3016 3015 3014 3014 3013 3012 3011 3010 3009 3009 3009 3010 3010 3011 3012 3012 3013 3013 3013 3014
3029 3027 3026 3025 3024 3024 3024 3024 3025 3026 3026 3026 3026 3027 3030 3032 3034 3035 3037 3039 3041 3043 3044 3046 3048 3049 3051 3052 3052 3053 3053 3053 3053 3052 3052 3051 3051 3050 3048 3047 3047 3048 3047 3045 3042 3040 3039 3038 3037 3035 3033 3031 3029 3027 3025 3024 3022 3021 3019 3018 3017 3015 3015 3014 3013 3012 3012 3011 3010 3009 3008 3007 3006 3005 3004 3003 3003 3003 3004 3004 3005 3006 3007 3007 3007 3008 3009
3028 3026 3024 3023 3023 3022 3022 3022 3023 3024 3025 3025 3026 3026 3026 3029 3032 3034 3035 3037 3039 3041 3042 3044 3046 3047 3048 3050 3050 3050 3051 3051 3051 3051 3050 3050 3050 3049 3047 3045 3044 3045 3044 3043 3040 3038 3036 3034 3033 3031 3029 3027 3025 3023 3022 3020 3018 3017 3015 3014 3013 3011 3010 3010 3009 3008 3007 3006 3005 3003 3003 3002 3001 3000 2999 2998 2998 2998 2998 2999 3000 3001 3002 3002 3002 3003 3003
3027 3025 3023 3022 3021 3021 3021 3021 3021 3021 3022 3023 3024 3025 3025 3027 3030 3033 3034 3036 3038 3039 3040 3042 3044 3046 3047 3048 3048 3048 3049 3049 3049 3049 3048 3048 3048 3047 3046 3044 3043 3042 3041 3040 3038 3036 3034 3032 3030 3029 3027 3025 3023 3021 3019 3017 3015 3014 3012 3010 3009 3008 3007 3006 3005 3003 3002 3001 3000 2998 2997 2997 2996 2995 2995 2994 2994 2994 2994 2995 2995 2996 2997 2997 2997 2998 2998
3027 3025 3024 3022 3021 3020 3020 3021 3021 3021 3021 3022 3024 3025 3025 3027 3029 3032 3034 3035 3037 3038 3039 3041 3043 3044 3045 3046 3046 3046 3046 3047 3047 3047 3046 3046 3045 3044 3044 3043 3042 3040 3038 3037 3035 3034 3032 3031 3029 3027 3026 3023 3021 3019 3017 3014 3012 3011 3009 3007 3006 3004 3003 3002 3001 3000 2998 2997 2996 2994 2993 2993 2992 2991 2991 2991 2990 2990 2991 2991 2991 2992 2993 2993 2993 2993 2994
3029 3027 3025 3024 3023 3022 3021 3022 3021 3021 3022 3023 3025 3025 3026 3027 3029 3031 3033 3035 3036 3037 3039 3040 3042 3043 3043 3044 3044 3044 3044 3044 3044 3044 3044 3043 3043 3041 3041 3040 3039 3037 3036 3034 3033 3031 3030 3029 3027 3025 3024 3022 3020 3018 3015 3013 3011 3009 3007 3005 3004 3002 3000 2999 2998 2997 2996 2994 2993 2991 2990 2989 2988 2988 2987 2987 2987 2987 2987 2987 2988 2988 2988 2989 2989 2989 2989